DW7888 Weather Reports


time (UTC)temp
C
wind
direction
speed
KPH
gust
KPH
rain 1hr
cm
rain 24hr
cm
rain mn
cm
humidity
%
barometer
mb
20260509175509 23 121 0.0 12.9 0.00 0.00 0.00 57 1010.4
20260509175008 23 153 6.4 12.9 0.00 0.00 0.00 51 1010.3
20260509174508 23 213 4.8 12.9 0.00 0.00 0.00 55 1010.6
20260509174007 22 21 1.6 11.3 0.00 0.00 0.00 56 1010.6
20260509173515 22 135 3.2 16.1 0.00 0.00 0.00 56 1010.5
20260509173014 23 117 4.8 16.1 0.00 0.00 0.00 53 1010.5
20260509172507 23 126 1.6 11.3 0.00 0.00 0.00 55 1010.5
20260509172008 23 156 4.8 11.3 0.00 0.00 0.00 55 1010.5
20260509171519 22 116 3.2 8.0 0.00 0.00 0.00 56 1010.6
20260509171011 23 171 1.6 9.7 0.00 0.00 0.00 53 1010.7
20260509170508 23 196 1.6 11.3 0.00 0.00 0.00 53 1010.7
20260509170008 23 90 1.6 11.3 0.00 0.00 0.00 54 1010.9
20260509165508 23 138 3.2 17.7 0.00 0.00 0.00 56 1011.1
20260509165009 22 246 3.2 17.7 0.00 0.00 0.00 57 1011.3
20260509164509 23 142 4.8 11.3 0.00 0.00 0.00 53 1011.2
20260509164009 22 134 3.2 9.7 0.00 0.00 0.00 61 1011.4
20260509163508 22 88 1.6 9.7 0.00 0.00 0.00 57 1011.6
20260509163014 22 144 3.2 16.1 0.00 0.00 0.00 57 1011.5
20260509162508 22 156 4.8 16.1 0.00 0.00 0.00 55 1011.4
20260509162008 22 168 3.2 9.7 0.00 0.00 0.00 56 1011.3
20260509161517 22 142 3.2 6.4 0.00 0.00 0.00 60 1011.4
20260509161014 22 307 1.6 6.4 0.00 0.00 0.00 60 1011.4
20260509160510 21 198 1.6 8.0 0.00 0.00 0.00 61 1011.5
20260509160014 21 159 3.2 11.3 0.00 0.00 0.00 58 1011.6
20260509155508 22 139 4.8 11.3 0.00 0.00 0.00 54 1011.6
20260509155010 22 138 1.6 9.7 0.00 0.00 0.00 58 1011.6
20260509154516 21 195 1.6 14.5 0.00 0.00 0.00 58 1011.7
20260509154011 21 133 4.8 14.5 0.00 0.00 0.00 58 1011.9
20260509153508 21 148 1.6 8.0 0.00 0.00 0.00 57 1012.1
20260509153020 21 328 1.6 14.5 0.00 0.00 0.00 58 1012.1
20260509152507 21 144 6.4 14.5 0.00 0.00 0.00 60 1011.9
20260509152010 21 161 1.6 11.3 0.00 0.00 0.00 60 1011.9
20260509151517 21 184 3.2 11.3 0.00 0.00 0.00 58 1012.0
20260509151008 21 167 3.2 11.3 0.00 0.00 0.00 59 1012.2
20260509150510 21 204 3.2 9.7 0.00 0.00 0.00 62 1012.2
20260509150016 20 83 3.2 9.7 0.00 0.00 0.00 65 1012.1
20260509145510 21 261 3.2 9.7 0.00 0.00 0.00 63 1012.3
20260509145015 20 118 3.2 16.1 0.00 0.00 0.00 62 1012.4
20260509144518 20 360 0.0 16.1 0.00 0.00 0.00 66 1012.4
20260509144007 20 192 4.8 16.1 0.00 0.00 0.00 63 1012.6
20260509143511 20 185 3.2 12.9 0.00 0.00 0.00 64 1012.7
20260509143016 20 120 1.6 11.3 0.00 0.00 0.00 66 1012.8
20260509142508 19 181 1.6 11.3 0.00 0.00 0.00 68 1013.0
20260509142009 19 138 1.6 11.3 0.00 0.00 0.00 67 1013.1
20260509141524 19 113 1.6 9.7 0.00 0.00 0.00 69 1013.0
20260509141013 19 150 1.6 9.7 0.00 0.00 0.00 66 1012.9
20260509140509 19 183 1.6 12.9 0.00 0.00 0.00 66 1013.0
20260509140021 18 265 3.2 12.9 0.00 0.00 0.00 68 1012.9
20260509135510 18 74 3.2 12.9 0.00 0.00 0.00 70 1012.8
20260509135013 18 109 1.6 11.3 0.00 0.00 0.00 72 1012.8
20260509134519 17 182 3.2 11.3 0.00 0.00 0.00 72 1012.9
20260509134009 17 183 1.6 8.0 0.00 0.00 0.00 73 1013.1
20260509133514 17 167 0.0 9.7 0.00 0.00 0.00 74 1013.1
20260509133022 17 204 1.6 8.0 0.00 0.00 0.00 74 1013.3
20260509132511 17 159 0.0 8.0 0.00 0.00 0.00 75 1013.4
20260509132011 17 140 0.0 8.0 0.00 0.00 0.00 75 1013.4
20260509131521 17 173 1.6 8.0 0.00 0.00 0.00 76 1013.5
20260509131012 16 107 0.0 6.4 0.00 0.00 0.00 77 1013.4
20260509130513 16 116 0.0 6.4 0.00 0.00 0.00 76 1013.3
20260509130023 16 194 1.6 11.3 0.00 0.00 0.00 78 1013.3
20260509125519 16 107 1.6 11.3 0.00 0.00 0.00 77 1013.2
20260509125009 16 149 0.0 11.3 0.00 0.00 0.00 79 1013.1
20260509124535 15 123 1.6 14.5 0.00 0.00 0.00 78 1013.1
20260509124009 15 201 3.2 14.5 0.00 0.00 0.00 79 1013.1
20260509123509 15 157 3.2 14.5 0.00 0.00 0.00 79 1013.1
20260509123023 15 121 1.6 9.7 0.00 0.00 0.00 80 1013.2
20260509122516 15 293 0.0 9.7 0.00 0.00 0.00 80 1013.2
20260509122014 15 189 1.6 9.7 0.00 0.00 0.00 80 1013.2
20260509121535 14 116 1.6 9.7 0.00 0.00 0.00 81 1013.3
20260509121011 14 229 1.6 12.9 0.00 0.00 0.00 82 1013.4
20260509120508 14 145 4.8 12.9 0.00 0.00 0.00 82 1013.6
20260509120007 13 246 1.6 11.3 0.00 0.00 0.00 82 1013.5
20260509115504 13 190 1.6 9.7 0.00 0.00 0.00 83 1013.3
20260509115002 13 160 3.2 12.9 0.00 0.00 0.00 83 1013.2
20260509114517 13 159 1.6 16.1 0.00 0.00 0.00 84 1013.2
20260509114006 13 168 1.6 16.1 0.00 0.00 0.00 84 1013.1
20260509113503 13 171 1.6 11.3 0.00 0.00 0.00 85 1013.0
20260509113005 12 146 3.2 11.3 0.00 0.00 0.00 85 1013.0
20260509112506 12 140 1.6 9.7 0.00 0.00 0.00 85 1013.1
20260509112004 12 236 1.6 12.9 0.00 0.00 0.00 86 1013.1
20260509111503 12 126 0.0 12.9 0.00 0.00 0.00 85 1013.0
20260509111007 12 188 4.8 12.9 0.00 0.00 0.00 86 1012.9
20260509110502 12 124 1.6 6.4 0.00 0.00 0.00 86 1013.0
20260509110006 12 165 1.6 6.4 0.00 0.00 0.00 86 1013.0
20260509105507 12 101 1.6 6.4 0.00 0.00 0.00 85 1013.0
20260509105005 12 147 1.6 8.0 0.00 0.00 0.00 85 1013.0
20260509104508 12 195 3.2 14.5 0.00 0.00 0.00 85 1013.0
20260509104006 12 136 3.2 14.5 0.00 0.00 0.00 85 1013.1
20260509103503 12 165 1.6 8.0 0.00 0.00 0.00 85 1013.0
20260509103008 11 180 1.6 8.0 0.00 0.00 0.00 85 1013.0
20260509102506 12 157 0.0 4.8 0.00 0.00 0.00 85 1013.0
20260509102005 12 177 0.0 4.8 0.00 0.00 0.00 85 1013.0
20260509101510 12 226 0.0 12.9 0.00 0.00 0.00 84 1012.9
20260509101007 12 183 3.2 12.9 0.00 0.00 0.00 85 1012.8
20260509100503 11 175 1.6 9.7 0.00 0.00 0.00 85 1012.8
20260509100008 11 211 0.0 12.9 0.00 0.00 0.00 84 1012.9
20260509095510 11 144 0.0 12.9 0.00 0.00 0.00 84 1012.9
20260509095005 11 117 0.0 4.8 0.00 0.00 0.00 84 1012.9
20260509094507 11 130 1.6 8.0 0.00 0.00 0.00 84 1012.9
20260509094009 12 82 3.2 9.7 0.00 0.00 0.00 83 1012.9
20260509093502 12 181 1.6 9.7 0.00 0.00 0.00 83 1012.9
20260509093010 12 134 1.6 4.8 0.00 0.00 0.00 83 1013.0
20260509092507 12 163 1.6 9.7 0.00 0.00 0.00 82 1013.0
20260509092002 12 168 0.0 9.7 0.00 0.00 0.00 82 1013.1
20260509091511 12 170 1.6 9.7 0.00 0.00 0.00 81 1013.0
20260509091012 12 110 1.6 9.7 0.00 0.00 0.00 81 1013.1
20260509090504 12 171 0.0 6.4 0.00 0.00 0.00 81 1013.1
20260509090031 12 215 0.0 6.4 0.00 0.00 0.00 80 1013.1
20260509085507 12 141 0.0 9.7 0.00 0.00 0.00 80 1013.0
20260509085003 12 189 1.6 9.7 0.00 0.00 0.00 79 1013.0
20260509084520 12 144 1.6 8.0 0.00 0.00 0.00 79 1012.9
20260509084010 12 150 1.6 8.0 0.00 0.00 0.00 79 1012.8
20260509083502 12 218 1.6 9.7 0.00 0.00 0.00 78 1012.9
20260509083032 12 196 1.6 9.7 0.00 0.00 0.00 78 1012.8
20260509082513 12 178 1.6 9.7 0.00 0.00 0.00 77 1012.8
20260509082009 12 197 1.6 9.7 0.00 0.00 0.00 77 1012.9
20260509081523 12 191 1.6 8.0 0.00 0.00 0.00 77 1012.7
20260509081016 12 136 1.6 8.0 0.00 0.00 0.00 76 1012.7
20260509080503 12 172 1.6 8.0 0.00 0.00 0.00 75 1012.8
20260509080016 12 171 0.0 9.7 0.00 0.00 0.00 74 1012.9
20260509075510 13 102 1.6 9.7 0.00 0.00 0.00 74 1013.0
20260509075006 13 180 0.0 3.2 0.00 0.00 0.00 73 1013.0
20260509074529 13 144 0.0 3.2 0.00 0.00 0.00 73 1013.1
20260509074006 13 159 0.0 3.2 0.00 0.00 0.00 72 1013.1
20260509073506 13 35 0.0 3.2 0.00 0.00 0.00 72 1013.1
20260509073019 13 200 0.0 4.8 0.00 0.00 0.00 72 1013.2
20260509072514 13 326 0.0 6.4 0.00 0.00 0.00 72 1013.1
20260509072003 13 173 1.6 12.9 0.00 0.00 0.00 71 1013.1
20260509071522 13 196 3.2 12.9 0.00 0.00 0.00 72 1013.1
20260509071004 13 149 3.2 11.3 0.00 0.00 0.00 71 1013.2
20260509070506 13 206 3.2 11.3 0.00 0.00 0.00 71 1013.2
20260509070018 13 107 3.2 11.3 0.00 0.00 0.00 71 1013.3
20260509065504 13 173 1.6 11.3 0.00 0.00 0.00 71 1013.4
20260509065006 13 167 1.6 11.3 0.00 0.00 0.00 71 1013.5
20260509064520 13 109 3.2 11.3 0.00 0.00 0.00 71 1013.6
20260509064005 13 221 1.6 8.0 0.00 0.00 0.00 71 1013.7
20260509063506 13 151 3.2 9.7 0.00 0.00 0.00 71 1013.8
20260509063019 13 148 1.6 11.3 0.00 0.00 0.00 71 1013.9
20260509062503 13 132 3.2 11.3 0.00 0.00 0.00 70 1014.0
20260509062008 13 112 1.6 6.4 0.00 0.00 0.00 69 1014.1
20260509061522 13 155 1.6 8.0 0.00 0.00 0.00 69 1014.2
20260509061003 13 154 1.6 8.0 0.00 0.00 0.00 68 1014.2
20260509060507 13 149 3.2 11.3 0.00 0.00 0.00 67 1014.3
20260509060022 13 156 0.0 11.3 0.00 0.00 0.00 67 1014.3
20260509055503 13 176 3.2 11.3 0.00 0.00 0.00 67 1014.2
20260509055004 13 162 3.2 9.7 0.00 0.00 0.00 67 1014.2
20260509054524 13 163 1.6 9.7 0.00 0.00 0.00 66 1014.2
20260509054007 13 132 1.6 12.9 0.00 0.00 0.00 66 1014.2
20260509053507 13 161 3.2 12.9 0.00 0.00 0.00 65 1014.3
20260509053035 13 185 1.6 9.7 0.00 0.00 0.00 65 1014.2
20260509052506 14 115 3.2 9.7 0.00 0.00 0.00 64 1014.1
20260509052007 14 117 3.2 9.7 0.00 0.00 0.00 63 1014.0
20260509051524 14 157 1.6 9.7 0.00 0.00 0.00 63 1013.9
20260509051009 14 169 0.0 11.3 0.00 0.00 0.00 62 1013.8
20260509050511 14 160 3.2 11.3 0.00 0.00 0.00 62 1013.8
20260509050045 14 150 1.6 8.0 0.00 0.00 0.00 62 1013.8
20260509045503 15 165 1.6 11.3 0.00 0.00 0.00 61 1013.8
20260509045009 15 162 1.6 11.3 0.00 0.00 0.00 61 1013.8
20260509044524 15 158 3.2 11.3 0.00 0.00 0.00 61 1013.7
20260509044011 15 155 3.2 12.9 0.00 0.00 0.00 61 1013.7
20260509043510 15 167 1.6 12.9 0.00 0.00 0.00 61 1013.8
20260509043035 15 165 1.6 9.7 0.00 0.00 0.00 60 1013.7
20260509042509 15 127 1.6 6.4 0.00 0.00 0.00 60 1013.7
20260509042010 15 149 1.6 12.9 0.00 0.00 0.00 60 1013.8
20260509041528 15 187 3.2 12.9 0.00 0.00 0.00 59 1013.9
20260509041009 15 126 1.6 8.0 0.00 0.00 0.00 59 1013.9
20260509040510 15 193 0.0 8.0 0.00 0.00 0.00 60 1013.9
20260509040025 15 190 3.2 9.7 0.00 0.00 0.00 58 1013.9
20260509035505 15 136 3.2 9.7 0.00 0.00 0.00 58 1013.9
20260509035009 15 153 1.6 11.3 0.00 0.00 0.00 58 1014.0
20260509034528 15 153 1.6 11.3 0.00 0.00 0.00 57 1014.0
20260509034005 15 155 3.2 14.5 0.00 0.00 0.00 57 1014.1
20260509033514 15 205 3.2 14.5 0.00 0.00 0.00 56 1014.1
20260509033036 15 126 3.2 14.5 0.00 0.00 0.00 56 1014.3
20260509032507 15 182 4.8 14.5 0.00 0.00 0.00 56 1014.4
20260509032009 15 156 1.6 8.0 0.00 0.00 0.00 56 1014.4
20260509031531 15 148 1.6 6.4 0.00 0.00 0.00 56 1014.3
20260509031007 15 165 1.6 11.3 0.00 0.00 0.00 55 1014.4
20260509030514 15 197 1.6 11.3 0.00 0.00 0.00 55 1014.2
20260509030017 16 156 1.6 8.0 0.00 0.00 0.00 54 1014.2
20260509025507 16 195 1.6 8.0 0.00 0.00 0.00 54 1014.2
20260509025002 16 115 3.2 9.7 0.00 0.00 0.00 54 1014.3
20260509024509 16 150 1.6 9.7 0.00 0.00 0.00 53 1014.4
20260509024011 16 153 1.6 9.7 0.00 0.00 0.00 54 1014.3
20260509023503 15 157 1.6 6.4 0.00 0.00 0.00 54 1014.4
20260509023012 16 166 1.6 9.7 0.00 0.00 0.00 54 1014.3
20260509022507 16 104 1.6 9.7 0.00 0.00 0.00 54 1014.3
20260509022002 16 150 3.2 9.7 0.00 0.00 0.00 53 1014.2
20260509021512 16 155 1.6 8.0 0.00 0.00 0.00 53 1014.3
20260509021008 16 138 1.6 6.4 0.00 0.00 0.00 52 1014.3
20260509020503 16 153 1.6 6.4 0.00 0.00 0.00 52 1014.3
20260509020014 16 207 1.6 6.4 0.00 0.00 0.00 52 1014.3
20260509015510 16 174 1.6 6.4 0.00 0.00 0.00 52 1014.3
20260509015010 15 159 1.6 6.4 0.00 0.00 0.00 52 1014.1
20260509014513 15 176 1.6 6.4 0.00 0.00 0.00 53 1014.1
20260509014002 15 157 1.6 8.0 0.00 0.00 0.00 52 1014.1
20260509013502 15 151 0.0 8.0 0.00 0.00 0.00 54 1014.1
20260509013014 15 158 1.6 3.2 0.00 0.00 0.00 55 1014.1
20260509012502 15 120 0.0 3.2 0.00 0.00 0.00 56 1014.0
20260509012003 15 150 1.6 3.2 0.00 0.00 0.00 56 1014.0
20260509011517 15 144 0.0 3.2 0.00 0.00 0.00 58 1013.9
20260509011005 15 161 0.0 3.2 0.00 0.00 0.00 56 1013.9
20260509010503 15 165 0.0 0.0 0.00 0.00 0.00 56 1013.9
20260509010017 15 165 0.0 0.0 0.00 0.00 0.00 55 1013.9
20260509005503 16 165 0.0 0.0 0.00 0.00 0.00 53 1013.8
20260509005006 16 155 0.0 0.0 0.00 0.00 0.00 52 1013.9
20260509004518 16 155 0.0 0.0 0.00 0.00 0.00 51 1013.9
20260509004003 16 155 0.0 0.0 0.00 0.00 0.00 50 1013.9
20260509003506 17 155 0.0 0.0 0.00 0.00 0.00 49 1014.0
20260509003021 17 155 0.0 0.0 0.00 0.00 0.00 47 1013.9
20260509002502 17 155 0.0 0.0 0.00 0.00 0.00 46 1013.9
20260509002010 17 155 0.0 0.0 0.00 0.00 0.00 45 1013.8
20260509001520 18 154 0.0 1.6 0.00 0.00 0.00 43 1013.8
20260509001005 18 154 0.0 4.8 0.00 0.00 0.00 43 1013.7
20260509000507 18 161 0.0 4.8 0.00 0.00 0.00 42 1013.7
20260509000035 18 150 0.0 6.4 0.00 0.00 0.00 41 1013.6
20260508235503 18 135 0.0 6.4 0.00 0.00 0.00 42 1013.4
20260508235007 18 173 1.6 4.8 0.00 0.00 0.00 41 1013.4
20260508234522 19 120 1.6 11.3 0.00 0.00 0.00 41 1013.4
20260508234003 19 178 1.6 11.3 0.00 0.00 0.00 40 1013.3
20260508233508 19 185 1.6 4.8 0.00 0.00 0.00 41 1013.2
20260508233022 19 155 0.0 4.8 0.00 0.00 0.00 41 1013.2
20260508232502 20 155 0.0 9.7 0.00 0.00 0.00 41 1013.1
20260508232006 20 85 1.6 9.7 0.00 0.00 0.00 41 1013.1
20260508231524 20 164 0.0 8.0 0.00 0.00 0.00 40 1013.1
20260508231005 20 152 0.0 11.3 0.00 0.00 0.00 39 1013.0
20260508230507 20 190 1.6 11.3 0.00 0.00 0.00 40 1013.0
20260508230022 20 196 3.2 11.3 0.00 0.00 0.00 40 1013.0
20260508225503 20 134 1.6 6.4 0.00 0.00 0.00 40 1013.0
20260508225009 20 88 0.0 6.4 0.00 0.00 0.00 41 1013.0
20260508224547 20 323 1.6 12.9 0.00 0.00 0.00 39 1012.9
20260508224006 20 150 0.0 12.9 0.00 0.00 0.00 39 1013.0
20260508223506 20 99 4.8 12.9 0.00 0.00 0.00 38 1013.0
20260508223025 20 133 1.6 9.7 0.00 0.00 0.00 37 1013.0
20260508222504 20 116 1.6 9.7 0.00 0.00 0.00 39 1013.0
20260508222011 20 195 0.0 6.4 0.00 0.00 0.00 37 1013.1
20260508221531 20 142 1.6 9.7 0.00 0.00 0.00 36 1013.2
20260508221008 20 123 0.0 9.7 0.00 0.00 0.00 37 1013.3
20260508220506 20 126 1.6 9.7 0.00 0.00 0.00 36 1013.4
20260508220031 21 28 1.6 8.0 0.00 0.00 0.00 38 1013.4
20260508215507 21 201 0.0 4.8 0.00 0.00 0.00 38 1013.4
20260508215006 21 130 0.0 4.8 0.00 0.00 0.00 37 1013.4
20260508214535 21 100 1.6 4.8 0.00 0.00 0.00 37 1013.4
20260508214006 21 133 0.0 8.0 0.00 0.00 0.00 38 1013.4
20260508213507 21 132 1.6 8.0 0.00 0.00 0.00 38 1013.4
20260508213032 21 317 1.6 9.7 0.00 0.00 0.00 38 1013.4
20260508212507 21 40 0.0 9.7 0.00 0.00 0.00 35 1013.4
20260508212009 21 146 3.2 8.0 0.00 0.00 0.00 35 1013.5
20260508211527 21 21 0.0 4.8 0.00 0.00 0.00 34 1013.3
20260508211007 21 360 0.0 6.4 0.00 0.00 0.00 38 1013.3
20260508210510 21 114 1.6 6.4 0.00 0.00 0.00 34 1013.3
20260508210028 21 235 0.0 6.4 0.00 0.00 0.00 38 1013.3
20260508205507 21 355 1.6 8.0 0.00 0.00 0.00 36 1013.4
20260508205009 21 205 1.6 11.3 0.00 0.00 0.00 37 1013.5
20260508204528 21 88 3.2 11.3 0.00 0.00 0.00 34 1013.5
20260508204006 21 52 1.6 11.3 0.00 0.00 0.00 34 1013.6
20260508203514 21 350 1.6 11.3 0.00 0.03 0.00 36 1013.7
20260508203028 21 163 1.6 12.9 0.00 0.05 0.00 37 1013.7
20260508202507 21 177 1.6 12.9 0.00 0.08 0.00 37 1013.7
20260508202012 21 130 6.4 12.9 0.00 0.10 0.00 34 1013.7
20260508201509 21 189 0.0 14.5 0.00 0.13 0.00 38 1013.7
20260508201008 21 90 1.6 14.5 0.00 0.15 0.00 38 1013.8
20260508200507 21 327 4.8 14.5 0.00 0.15 0.00 35 1013.8
20260508200027 21 15 1.6 9.7 0.00 0.18 0.00 38 1014.0
20260508195509 21 107 0.0 16.1 0.00 0.18 0.00 36 1014.0
20260508195009 21 30 1.6 16.1 0.00 0.18 0.00 35 1013.9
20260508194514 21 178 1.6 11.3 0.00 0.23 0.00 45 1014.0
20260508194011 21 134 3.2 11.3 0.00 0.28 0.00 36 1014.0
20260508193509 21 181 3.2 12.9 0.00 0.28 0.00 36 1014.1
20260508193024 21 144 3.2 12.9 0.00 0.28 0.00 39 1014.2
20260508192515 21 42 1.6 9.7 0.00 0.28 0.00 39 1014.1
20260508192014 20 154 3.2 8.0 0.00 0.28 0.00 37 1014.4
20260508191512 21 5 4.8 9.7 0.00 0.28 0.00 38 1014.5
20260508191007 20 30 1.6 9.7 0.00 0.28 0.00 35 1014.6
20260508190515 21 355 3.2 9.7 0.00 0.28 0.00 37 1014.7
20260508190018 21 218 0.0 6.4 0.00 0.28 0.00 38 1014.9
20260508185507 21 190 1.6 6.4 0.00 0.28 0.00 35 1014.9
20260508185010 20 160 1.6 6.4 0.00 0.28 0.00 37 1015.0
20260508184524 20 50 1.6 6.4 0.00 0.28 0.00 40 1015.2
20260508184009 20 30 0.0 6.4 0.00 0.28 0.00 41 1015.1
20260508183512 20 140 1.6 9.7 0.00 0.28 0.00 36 1015.1
20260508183017 20 175 1.6 9.7 0.00 0.28 0.00 37 1015.2
20260508182507 20 150 1.6 8.0 0.00 0.28 0.00 35 1015.2
20260508182013 20 132 0.0 4.8 0.00 0.28 0.00 41 1015.3
20260508181516 21 148 1.6 4.8 0.00 0.28 0.00 39 1015.4
20260508181013 20 117 1.6 6.4 0.00 0.28 0.00 46 1015.4
20260508180510 20 177 0.0 9.7 0.00 0.28 0.00 43 1015.5
20260508180012 20 158 1.6 9.7 0.00 0.28 0.00 44 1015.6